TIANTONG-1 2

Last updated on Nov. 17, 2020, 12:02 a.m. UTC

1 46916U 20082A   20317.98813721  .00003491 -57871-6  10000-3 0  9996
2 46916  28.4367 289.1957 7313475 178.2258 251.4612  2.28160692    10
UTC
Height (km)
Latitude
Longitude
Inclination
Orbital Period
UTC large
Height (km)
Speed (km/s)
/
Latitude / Longitude
Inclination (degrees)
Orbital Period (minutes)
Azimuth
Elevation
Range (km)
Doppler Factor
iOS Compass Heading
iOS Angle

Next 30 passes for location: Hong Kong

Rise time Rise Azimuth (degrees) Set time Set Azimuth (degrees) Duration Max altitude (degrees)

No matching passes for this satellites